1512867600.46,52707,2.63,71836.3,-17.49,-24.57,-24.57,0,*6C
1512867601.73,52708,2.63,71844.0,-17.49,-25.03,-25.03,0,*63
1512867602.98,52709,2.63,71840.8,-17.49,-25.55,-25.13,0,*60
1512867604.2,52710,2.63,71844.3,-17.49,-26.03,-25.87,0,*65
1512867605.48,52711,2.63,71852.0,-17.49,-26.33,-24.71,0,*6F
1512867606.74,52712,2.63,71836.0,-17.47,-23.85,-22.73,0,*6E
1512867607.98,52713,2.63,71828.5,-17.47,-22.37,-22.21,0,*60
1512867609.22,52714,2.63,71834.0,-17.49,-22.41,-22.21,0,*68
1512867610.48,52715,2.63,71834.8,-17.49,-21.83,-21.97,0,*6A
1512867611.72,52716,2.63,71820.3,-17.49,-22.11,-22.21,0,*6F
1512867612.97,52717,2.63,71822.5,-17.49,-22.41,-22.47,0,*6B
1512867614.18,52718,2.63,71838.0,-17.49,-22.87,-22.93,0,*67
1512867615.4,52719,2.63,71838.5,-17.49,-23.43,-23.75,0,*66
1512867616.65,52720,2.63,71860.5,-17.47,-24.57,-24.71,0,*63
1512867617.88,52721,2.63,71852.0,-17.45,-25.23,-24.31,0,*66
1512867619.12,52722,2.63,71840.0,-17.45,-23.39,-22.57,0,*6E
1512867620.39,52723,2.56,71826.0,-17.45,-22.67,-21.87,0,*6B
1512867621.63,52724,2.63,71808.8,-17.47,-21.63,-20.83,0,*6C
1512867622.87,52725,2.56,71810.0,-17.47,-20.63,-20.35,0,*61
1512867624.14,52726,2.56,71822.5,-17.45,-20.49,-20.93,0,*64
1512867625.37,52727,2.63,71828.8,-17.45,-22.07,-22.83,0,*6E
1512867626.62,52728,2.63,71832.0,-17.45,-22.83,-22.53,0,*60
1512867627.82,52729,2.63,71846.3,-17.47,-22.07,-21.77,0,*6A
1512867629.07,52730,2.63,71844.0,-17.43,-22.03,-22.73,0,*65
1512867630.33,52731,2.56,71826.8,-17.45,-22.41,-22.17,0,*66
1512867631.56,52732,2.63,71838.8,-17.43,-21.77,-22.07,0,*64
1512867632.8,52733,2.63,71840.3,-17.43,-23.29,-24.51,0,*69
1512867634.08,52734,2.63,71842.0,-17.45,-25.97,-25.49,0,*63
1512867635.35,52735,2.63,71848.5,-17.45,-25.81,-25.61,0,*6F
1512867636.59,52736,2.63,71838.8,-17.47,-25.87,-25.29,0,*64
1512867637.86,52737,2.63,71842.5,-17.45,-24.51,-24.11,0,*67
1512867639.15,52738,2.63,71844.3,-17.45,-24.25,-24.11,0,*6B
1512867640.44,52739,2.63,71842.8,-17.45,-24.11,-23.99,0,*6A
1512867641.69,52740,2.63,71842.3,-17.45,-24.47,-24.61,0,*67
1512867642.94,52741,2.63,71844.8,-17.43,-24.77,-24.83,0,*6F
1512867644.21,52742,2.63,71844.5,-17.47,-25.75,-25.97,0,*6F
1512867645.45,52743,2.63,71848.5,-17.45,-26.61,-26.45,0,*66
1512867646.66,52744,2.63,71852.0,-17.47,-27.03,-26.45,0,*66
1512867647.9,52745,2.63,71852.5,-17.47,-26.45,-26.17,0,*63
1512867649.14,52746,2.63,71854.3,-17.47,-26.29,-25.87,0,*60
1512867650.35,52747,2.63,71848.3,-17.47,-25.65,-24.35,0,*62
1512867651.62,52748,2.63,71840.8,-17.45,-23.29,-22.37,0,*65
1512867652.86,52749,2.63,71848.3,-17.47,-21.93,-21.97,0,*6C
1512867654.09,52750,2.63,71846.5,-17.45,-22.03,-22.41,0,*64
1512867655.32,52751,2.63,71838.3,-17.47,-23.39,-22.73,0,*6E
1512867656.54,52752,2.63,71828.3,-17.47,-22.37,-22.11,0,*66
1512867657.74,52753,2.63,71834.3,-17.47,-22.07,-22.11,0,*64
1512867659.04,52754,2.63,71836.3,-17.45,-22.17,-22.31,0,*62
1512867660.31,52755,2.63,71846.0,-17.45,-22.87,-23.03,0,*6A
1512867661.59,52756,2.63,71846.3,-17.45,-23.69,-23.65,0,*68
1512867662.86,52757,2.63,71836.5,-17.45,-23.53,-22.87,0,*6D
1512867664.15,52758,2.63,71834.3,-17.45,-22.31,-22.17,0,*6E
1512867665.41,52759,2.56,71788.8,-17.45,-22.07,-21.57,0,*6D
1512867666.63,52760,2.63,71814.8,-17.43,-21.09,-20.05,0,*6A
1512867667.9,52761,2.63,71822.0,-17.43,-19.85,-19.61,0,*6C
1512867669.14,52762,2.56,71808.0,-17.43,-19.91,-20.15,0,*63
1512867670.36,52763,2.56,71814.0,-17.43,-20.09,-19.95,0,*6B
1512867671.6,52764,2.63,71816.0,-17.39,-19.95,-19.85,0,*6F
1512867672.84,52765,2.63,71828.8,-17.39,-19.99,-19.85,0,*62
1512867674.05,52766,2.63,71836.3,-17.39,-19.99,-19.91,0,*64
1512867675.28,52767,2.63,71836.3,-17.43,-20.09,-20.63,0,*6C
1512867676.5,52768,2.63,71828.5,-17.39,-20.89,-21.17,0,*64
1512867677.71,52769,2.63,71854.0,-17.39,-20.89,-21.39,0,*69
1512867678.93,52770,2.63,71866.8,-17.39,-21.73,-22.83,0,*67
1512867680.17,52771,2.63,71860.0,-17.39,-23.65,-23.43,0,*6E
1512867681.44,52772,2.56,71862.5,-17.37,-24.11,-24.77,0,*67
1512867682.68,52773,2.63,71860.8,-17.37,-26.07,-26.03,0,*62
1512867683.95,52774,2.63,71854.8,-17.39,-26.17,-25.45,0,*6B
1512867685.23,52775,2.63,71850.0,-17.37,-25.45,-24.41,0,*65
1512867686.5,52776,2.63,71836.3,-17.37,-24.25,-22.67,0,*63
1512867687.8,52777,2.56,71834.8,-17.37,-22.17,-21.87,0,*68
1512867689.06,52778,2.63,71842.0,-17.37,-21.67,-21.43,0,*6B
1512867690.32,52779,2.63,71842.0,-17.37,-21.23,-21.43,0,*6A
1512867691.62,52780,2.63,71842.0,-17.37,-21.83,-21.67,0,*60
1512867692.86,52781,2.63,71842.3,-17.35,-21.77,-20.99,0,*68
1512867694.1,52782,2.63,71820.0,-17.35,-21.03,-20.69,0,*67
1512867695.34,52783,2.63,71816.8,-17.35,-20.89,-20.83,0,*61
1512867696.56,52784,2.63,71802.8,-17.35,-21.17,-21.13,0,*68
1512867697.8,52785,2.63,71816.3,-17.35,-21.13,-21.03,0,*6C
1512867699.04,52786,2.63,71836.8,-17.33,-21.17,-21.39,0,*64
1512867700.28,52787,2.63,71834.8,-17.35,-21.67,-22.27,0,*68
1512867701.54,52788,2.56,71838.5,-17.35,-22.73,-23.29,0,*6E
1512867702.78,52789,2.63,71840.3,-17.35,-24.51,-24.67,0,*64
1512867704.02,52790,2.63,71842.5,-17.35,-25.19,-25.03,0,*62
1512867705.29,52791,2.56,71846.3,-17.35,-25.55,-25.55,0,*68
1512867706.54,52792,2.63,71836.3,-17.35,-25.55,-25.13,0,*69
1512867707.76,52793,2.63,71838.5,-17.35,-25.39,-25.13,0,*62
1512867709.0,52794,2.63,71834.8,-17.35,-25.03,-24.51,0,*6B
1512867710.26,52795,2.63,71824.3,-17.37,-25.23,-24.71,0,*68
1512867711.47,52796,2.63,71820.3,-17.35,-24.97,-24.57,0,*63
1512867712.68,52797,2.56,71832.5,-17.35,-25.35,-25.35,0,*6E
1512867713.92,52798,2.63,71834.5,-17.35,-26.49,-26.17,0,*6A
1512867715.19,52799,2.56,71832.8,-17.37,-26.33,-26.03,0,*61
1512867716.47,52800,2.56,71846.5,-17.37,-26.33,-25.61,0,*69
1512867717.72,52801,2.63,71846.8,-17.37,-24.93,-23.95,0,*6D
1512867718.96,52802,2.56,71838.3,-17.37,-23.79,-23.13,0,*63
1512867720.2,52803,2.56,71834.8,-17.37,-23.79,-22.87,0,*6E
1512867721.44,52804,2.63,71830.0,-17.35,-23.29,-22.57,0,*63
1512867722.71,52805,2.63,71820.0,-17.37,-22.47,-22.27,0,*6E
1512867723.91,52806,2.63,71826.0,-17.35,-22.87,-22.41,0,*63
1512867725.13,52807,2.56,71816.8,-17.35,-22.41,-21.93,0,*64
1512867726.4,52808,2.56,71796.8,-17.35,-21.53,-21.03,0,*62
1512867727.65,52809,2.56,71770.3,-17.35,-20.83,-20.39,0,*67
1512867728.91,52810,2.63,71784.0,-17.33,-20.19,-19.91,0,*62
1512867730.15,52811,2.63,71790.8,-17.35,-20.19,-19.95,0,*61
1512867731.36,52812,2.63,71770.5,-17.35,-19.95,-19.91,0,*68
1512867732.61,52813,2.63,71800.0,-17.33,-19.95,-19.95,0,*6B
1512867733.85,52814,2.56,71822.0,-17.33,-20.25,-20.25,0,*6C
1512867735.12,52815,2.63,71846.5,-17.33,-20.59,-20.99,0,*61
1512867736.38,52816,2.63,71842.0,-17.33,-20.99,-21.39,0,*65
1512867737.64,52817,2.63,71848.5,-17.33,-22.11,-23.53,0,*68
1512867738.86,52818,2.63,71838.5,-17.31,-24.61,-24.47,0,*66
1512867740.08,52819,2.56,71820.3,-17.31,-24.93,-23.95,0,*62
1512867741.35,52820,2.63,71824.3,-17.31,-23.53,-23.33,0,*6F
1512867742.56,52821,2.63,71834.8,-17.31,-25.23,-25.13,0,*6B
1512867743.8,52822,2.56,71836.8,-17.31,-25.81,-25.23,0,*63
1512867745.06,52823,2.63,71842.8,-17.31,-24.87,-23.99,0,*62
1512867746.3,52824,2.63,71848.8,-17.33,-24.35,-24.57,0,*6B
1512867747.54,52825,2.56,71836.5,-17.31,-25.75,-25.23,0,*6F
1512867748.83,52826,2.56,71852.8,-17.33,-25.81,-24.71,0,*63
1512867750.1,52827,2.63,71858.3,-17.33,-25.55,-23.39,0,*60
1512867751.39,52828,2.63,71854.8,-17.33,-23.19,-20.53,0,*6E
1512867752.62,52829,2.56,71820.0,-17.31,-20.15,-19.07,0,*69
1512867753.88,52830,2.63,71822.0,-17.33,-19.91,-19.27,0,*67
1512867755.09,52831,2.56,71822.8,-17.31,-19.91,-19.13,0,*63
1512867756.33,52832,2.56,71822.8,-17.31,-19.31,-18.99,0,*69
1512867757.55,52833,2.63,71826.5,-17.31,-19.13,-18.79,0,*66
1512867758.79,52834,2.63,71820.3,-17.29,-18.69,-18.49,0,*67
1512867760.03,52835,2.56,71816.8,-17.29,-18.65,-18.41,0,*62
1512867761.25,52836,2.56,71822.5,-17.27,-18.65,-18.45,0,*6B
1512867762.48,52837,2.63,71836.5,-17.27,-18.65,-18.59,0,*67
1512867763.69,52838,2.63,71848.3,-17.27,-18.49,-18.79,0,*64
1512867764.95,52839,2.63,71814.5,-17.25,-18.89,-19.37,0,*60
1512867766.18,52840,2.56,71802.8,-17.27,-19.51,-20.29,0,*6D
1512867767.45,52841,2.63,71812.0,-17.25,-20.35,-20.79,0,*63
1512867768.72,52842,2.56,71818.8,-17.25,-20.59,-20.79,0,*6A
1512867769.99,52843,2.56,71830.5,-17.25,-20.35,-20.89,0,*6E
1512867771.26,52844,2.56,71830.8,-17.25,-20.59,-21.23,0,*62
1512867772.47,52845,2.56,71838.3,-17.27,-20.73,-21.09,0,*61
1512867773.73,52846,2.63,71836.5,-17.25,-20.79,-21.09,0,*6A
1512867774.95,52847,2.63,71836.8,-17.23,-20.89,-21.43,0,*6C
1512867776.23,52848,2.63,71832.0,-17.25,-21.57,-21.83,0,*6B
1512867777.47,52849,2.56,71846.8,-17.25,-21.73,-22.03,0,*67
1512867778.74,52850,2.56,71840.3,-17.25,-22.17,-22.03,0,*6E
1512867779.95,52851,2.63,71842.3,-17.23,-22.63,-22.83,0,*62
1512867781.22,52852,2.56,71836.5,-17.25,-22.93,-23.19,0,*6A
1512867782.48,52853,2.56,71840.8,-17.25,-23.65,-23.89,0,*6A
1512867783.75,52854,2.56,71832.5,-17.25,-24.71,-24.47,0,*6A
1512867785.0,52855,2.56,71816.0,-17.25,-23.79,-22.93,0,*6B
1512867786.24,52856,2.63,71830.8,-17.25,-22.53,-22.67,0,*6A
1512867787.48,52857,2.56,71846.5,-17.25,-22.97,-23.09,0,*6A
1512867788.75,52858,2.63,71840.3,-17.25,-22.93,-22.21,0,*6A
1512867790.05,52859,2.56,71836.5,-17.25,-21.87,-21.67,0,*6C
1512867791.31,52860,2.56,71830.0,-17.25,-21.53,-21.73,0,*6A
1512867792.57,52861,2.63,71832.5,-17.25,-21.83,-22.03,0,*62
1512867793.84,52862,2.63,71816.8,-17.25,-22.11,-21.83,0,*62
1512867795.08,52863,2.63,71824.3,-17.25,-21.73,-21.39,0,*65
1512867796.34,52864,2.56,71838.0,-17.25,-21.27,-21.09,0,*60
1512867797.62,52865,2.63,71840.0,-17.25,-21.27,-21.57,0,*6A
1512867798.89,52866,2.56,71838.5,-17.25,-21.83,-22.03,0,*65
1512867800.18,52867,2.63,71840.8,-17.25,-22.21,-22.47,0,*6F
1512867801.46,52868,2.56,71836.5,-17.25,-22.53,-22.17,0,*60
1512867802.67,52869,2.56,71828.0,-17.23,-22.11,-21.43,0,*63
1512867803.88,52870,2.63,71816.8,-17.23,-21.17,-20.73,0,*6C
1512867805.15,52871,2.56,71836.0,-17.25,-20.63,-20.79,0,*63
1512867806.41,52872,2.56,71840.0,-17.25,-20.89,-21.53,0,*6D
1512867807.63,52873,2.56,71840.0,-17.23,-22.37,-23.09,0,*60
1512867808.9,52874,2.56,71846.0,-17.25,-23.13,-23.19,0,*67
1512867810.16,52875,2.56,71842.3,-17.25,-23.65,-23.75,0,*6D
1512867811.43,52876,2.56,71826.3,-17.25,-23.79,-22.77,0,*60
1512867812.64,52877,2.56,71830.8,-17.23,-22.11,-21.43,0,*6C
1512867813.93,52878,2.56,71838.8,-17.25,-21.67,-22.31,0,*61
1512867815.2,52879,2.56,71850.5,-17.25,-23.19,-23.75,0,*6A
1512867816.44,52880,2.56,71862.0,-17.25,-24.05,-23.89,0,*65
1512867817.71,52881,2.63,71862.0,-17.25,-24.05,-23.19,0,*6D
1512867818.95,52882,2.63,71836.3,-17.25,-24.61,-23.75,0,*66
1512867820.21,52883,2.56,71802.0,-17.25,-22.67,-22.31,0,*66
1512867821.45,52884,2.63,71788.8,-17.25,-22.11,-22.11,0,*62
1512867822.71,52885,2.56,71810.3,-17.25,-22.03,-22.31,0,*62
1512867823.97,52886,2.63,71824.0,-17.25,-23.29,-24.05,0,*69
1512867825.22,52887,2.56,71832.0,-17.25,-25.61,-25.39,0,*6C
1512867826.44,52888,2.56,71838.5,-17.23,-26.07,-25.61,0,*6B
1512867827.65,52889,2.56,71838.5,-17.23,-25.87,-25.39,0,*6C
1512867828.92,52890,2.63,71842.8,-17.25,-25.75,-25.19,0,*6D
1512867830.18,52891,2.56,71832.8,-17.25,-24.87,-24.47,0,*6A
1512867831.43,52892,2.63,71820.8,-17.27,-24.71,-24.31,0,*63
1512867832.67,52893,2.56,71832.8,-17.27,-24.11,-23.89,0,*60
1512867833.91,52894,2.56,71834.0,-17.27,-24.67,-24.57,0,*62
1512867835.16,52895,2.56,71824.8,-17.27,-25.91,-25.55,0,*68
1512867836.44,52896,2.56,71828.3,-17.27,-26.17,-25.75,0,*64
1512867837.68,52897,2.56,71832.5,-17.27,-25.87,-25.45,0,*6C
1512867838.94,52898,2.56,71832.8,-17.29,-25.45,-24.93,0,*69
1512867840.15,52899,2.56,71838.3,-17.27,-25.61,-24.93,0,*60
1512867841.38,52900,2.56,71828.8,-17.27,-24.47,-23.75,0,*6B
1512867842.63,52901,2.56,71826.5,-17.27,-23.13,-22.47,0,*6C
1512867843.89,52902,2.56,71814.5,-17.29,-22.17,-21.09,0,*6D
1512867845.11,52903,2.56,71794.8,-17.27,-21.17,-20.29,0,*62
1512867846.4,52904,2.56,71780.3,-17.25,-20.15,-19.85,0,*68
1512867847.67,52905,2.56,71774.0,-17.25,-19.95,-19.57,0,*64
1512867848.94,52906,2.56,71780.5,-17.27,-19.65,-19.65,0,*6B
1512867850.19,52907,2.56,71788.5,-17.27,-19.51,-19.81,0,*67
1512867851.46,52908,2.63,71846.8,-17.25,-19.81,-20.79,0,*6A
1512867852.71,52909,2.56,71828.8,-17.23,-21.87,-22.63,0,*69
1512867853.92,52910,2.56,71826.5,-17.23,-23.59,-23.79,0,*6A
1512867855.19,52911,2.56,71820.3,-17.25,-24.61,-24.21,0,*6B
1512867856.45,52912,2.56,71826.3,-17.25,-25.09,-25.29,0,*6E
1512867857.68,52913,2.56,71824.3,-17.27,-25.91,-25.61,0,*60
1512867858.92,52914,2.56,71828.0,-17.27,-26.33,-25.91,0,*63
1512867860.16,52915,2.56,71828.0,-17.27,-26.71,-26.23,0,*6E
1512867861.43,52916,2.56,71828.3,-17.27,-26.71,-26.17,0,*6A
1512867862.69,52917,2.56,71826.5,-17.27,-26.71,-26.17,0,*6B
1512867863.96,52918,2.56,71824.8,-17.29,-26.81,-26.23,0,*62
1512867865.26,52919,2.56,71826.0,-17.29,-26.93,-26.29,0,*6A
1512867866.56,52920,2.56,71824.8,-17.29,-26.77,-26.13,0,*63
1512867867.85,52921,2.56,71824.5,-17.29,-26.77,-26.29,0,*6B
1512867869.07,52922,2.56,71822.3,-17.31,-26.39,-26.07,0,*67
1512867870.29,52923,2.56,71824.5,-17.31,-26.45,-26.07,0,*6D
1512867871.5,52924,2.56,71828.0,-17.31,-26.45,-26.07,0,*6A
1512867872.72,52925,2.56,71832.3,-17.31,-26.49,-26.07,0,*67
1512867873.97,52926,2.56,71836.8,-17.33,-26.49,-26.03,0,*62
1512867875.18,52927,2.56,71836.0,-17.31,-25.61,-24.97,0,*67
1512867876.44,52928,2.56,71834.5,-17.31,-24.83,-24.67,0,*6A
1512867877.69,52929,2.56,71832.5,-17.33,-25.65,-25.49,0,*6D
1512867878.97,52930,2.56,71832.5,-17.33,-26.03,-25.71,0,*6D
1512867880.23,52931,2.63,71838.8,-17.33,-26.13,-25.87,0,*64
1512867881.5,52932,2.63,71834.5,-17.33,-25.97,-25.65,0,*64
1512867882.74,52933,2.56,71828.5,-17.33,-25.65,-25.49,0,*66
1512867884.04,52934,2.56,71828.8,-17.33,-25.71,-25.29,0,*62
1512867885.32,52935,2.56,71828.3,-17.33,-26.33,-26.03,0,*6D
1512867886.58,52936,2.56,71830.8,-17.33,-26.49,-26.13,0,*62
1512867887.84,52937,2.56,71830.0,-17.37,-26.55,-26.07,0,*6F
1512867889.08,52938,2.56,71828.8,-17.37,-26.61,-26.07,0,*67
1512867890.36,52939,2.56,71830.0,-17.35,-26.81,-26.29,0,*66
1512867891.65,52940,2.56,71828.5,-17.37,-26.93,-26.55,0,*62
1512867892.91,52941,2.56,71832.8,-17.37,-26.93,-26.49,0,*6E
1512867894.2,52942,2.56,71832.3,-17.37,-26.77,-26.33,0,*6A
1512867895.46,52943,2.56,71836.5,-17.37,-26.71,-26.23,0,*6C
1512867896.72,52944,2.56,71834.5,-17.39,-26.71,-26.17,0,*62
1512867897.97,52945,2.56,71832.0,-17.39,-26.93,-26.39,0,*63
1512867899.23,52946,2.56,71838.5,-17.43,-26.97,-26.39,0,*69
1512867900.44,52947,2.56,71842.5,-17.39,-27.03,-26.39,0,*69
1512867901.71,52948,2.56,71846.0,-17.39,-26.93,-26.33,0,*64
1512867902.98,52949,2.56,71844.8,-17.39,-26.55,-25.75,0,*6E
1512867904.23,52950,2.56,71842.8,-17.43,-26.39,-25.75,0,*61
1512867905.45,52951,2.56,71838.5,-17.39,-25.39,-24.93,0,*67
1512867906.67,52952,2.56,71842.8,-17.39,-26.07,-25.61,0,*66
1512867907.89,52953,2.56,71850.0,-17.43,-26.39,-25.39,0,*6A
1512867909.15,52954,2.56,71836.5,-17.39,-25.03,-23.95,0,*6A
1512867910.39,52955,2.56,71822.5,-17.39,-23.49,-22.83,0,*65
1512867911.6,52956,2.56,71834.3,-17.39,-23.89,-23.59,0,*6C
1512867912.85,52957,2.56,71836.3,-17.39,-23.95,-22.53,0,*6B
1512867914.09,52958,2.56,71830.5,-17.39,-22.53,-21.57,0,*68
1512867915.3,52959,2.56,71822.0,-17.39,-21.43,-20.93,0,*62
1512867916.51,52960,2.56,71816.0,-17.39,-20.73,-20.29,0,*6B
1512867917.78,52961,2.56,71812.0,-17.37,-20.49,-20.43,0,*61
1512867919.02,52962,2.63,71812.5,-17.37,-20.89,-21.09,0,*61
1512867920.26,52963,2.56,71812.8,-17.37,-21.73,-22.37,0,*6A
1512867921.49,52964,2.56,71818.0,-17.35,-22.73,-22.87,0,*67
1512867922.73,52965,2.56,71820.3,-17.37,-22.83,-22.63,0,*61
1512867924.0,52966,2.56,71814.5,-17.37,-22.63,-22.47,0,*6A
1512867925.27,52967,2.56,71810.0,-17.35,-22.31,-22.17,0,*6B
1512867926.56,52968,2.56,71800.3,-17.37,-21.57,-21.23,0,*61
1512867927.79,52969,2.56,71792.8,-17.35,-20.89,-20.89,0,*61
1512867929.06,52970,2.56,71800.8,-17.35,-20.83,-20.99,0,*62
1512867930.3,52971,2.56,71844.8,-17.35,-21.39,-21.03,0,*61
1512867931.57,52972,2.56,71824.8,-17.35,-20.99,-20.53,0,*6D
1512867932.86,52973,2.56,71828.5,-17.33,-21.33,-21.67,0,*6D
1512867934.12,52974,2.56,71834.3,-17.33,-22.41,-23.03,0,*6C
1512867935.39,52975,2.56,71832.5,-17.33,-25.29,-25.39,0,*6B
1512867936.65,52976,2.56,71834.8,-17.33,-26.13,-25.87,0,*67
1512867937.92,52977,2.56,71842.8,-17.33,-26.33,-25.65,0,*68
1512867939.17,52978,2.56,71844.5,-17.35,-26.13,-25.49,0,*6D
1512867940.44,52979,2.56,71830.5,-17.35,-24.41,-23.99,0,*62
1512867941.67,52980,2.56,71830.3,-17.35,-23.69,-23.09,0,*60
1512867942.92,52981,2.56,71830.3,-17.35,-23.23,-22.93,0,*6D
1512867944.13,52982,2.56,71830.3,-17.35,-22.87,-22.63,0,*6E
1512867945.42,52983,2.56,71836.0,-17.33,-22.31,-22.21,0,*62
1512867946.68,52984,2.56,71836.5,-17.33,-22.31,-22.63,0,*63
1512867947.95,52985,2.56,71828.3,-17.33,-23.09,-23.03,0,*6F
1512867949.24,52986,2.63,71838.5,-17.33,-23.99,-23.69,0,*69
1512867950.45,52987,2.56,71832.8,-17.35,-23.89,-23.59,0,*6C
1512867951.69,52988,2.56,71830.5,-17.35,-24.31,-23.99,0,*6B
1512867952.97,52989,2.56,71828.3,-17.35,-24.71,-24.71,0,*6F
1512867954.24,52990,2.56,71830.0,-17.35,-25.71,-25.29,0,*6A
1512867955.51,52991,2.56,71828.5,-17.37,-25.71,-25.23,0,*63
1512867956.75,52992,2.56,71830.3,-17.35,-24.97,-24.87,0,*64
1512867957.99,52993,2.56,71844.3,-17.35,-25.81,-25.49,0,*60
1512867959.23,52994,2.56,71836.3,-17.35,-26.29,-25.13,0,*69
1512867960.46,52995,2.56,71826.0,-17.35,-24.57,-23.43,0,*60
1512867961.68,52996,2.56,71808.3,-17.35,-23.43,-23.09,0,*6F
1512867962.92,52997,2.56,71810.8,-17.35,-23.85,-24.05,0,*6F
1512867964.16,52998,2.56,71808.0,-17.35,-23.99,-23.39,0,*65
1512867965.42,52999,2.56,71828.5,-17.33,-23.03,-22.57,0,*68
1512867966.69,53000,2.56,71840.0,-17.33,-23.19,-23.39,0,*62
1512867967.95,53001,2.56,71828.5,-17.33,-24.87,-24.97,0,*60
1512867969.21,53002,2.56,71822.0,-17.33,-24.67,-24.05,0,*66
1512867970.48,53003,2.56,71826.3,-17.33,-24.21,-24.05,0,*65
1512867971.75,53004,2.56,71812.5,-17.33,-24.31,-23.85,0,*6C
1512867972.99,53005,2.56,71816.0,-17.35,-24.51,-24.15,0,*63
1512867974.23,53006,2.56,71826.0,-17.35,-24.87,-24.51,0,*6B
1512867975.46,53007,2.56,71826.3,-17.35,-25.19,-24.83,0,*63
1512867976.7,53008,2.56,71820.8,-17.35,-25.19,-24.71,0,*61
1512867977.94,53009,2.56,71826.3,-17.35,-25.19,-24.83,0,*6D
1512867979.18,53010,2.56,71824.3,-17.35,-25.55,-25.13,0,*65
1512867980.43,53011,2.56,71820.3,-17.37,-24.93,-24.67,0,*6F
1512867981.7,53012,2.56,71830.5,-17.37,-25.91,-25.55,0,*6F
1512867982.97,53013,2.56,71830.3,-17.37,-26.07,-25.55,0,*62
1512867984.18,53014,2.56,71820.3,-17.35,-25.49,-24.97,0,*61
1512867985.44,53015,2.56,71830.3,-17.37,-24.87,-24.61,0,*68
1512867986.68,53016,2.56,71820.8,-17.37,-25.61,-24.93,0,*6F
1512867987.94,53017,2.56,71828.3,-17.37,-26.13,-25.35,0,*65
1512867989.21,53018,2.56,71810.0,-17.37,-24.71,-23.59,0,*60
1512867990.48,53019,2.56,71794.8,-17.37,-23.23,-22.63,0,*69
1512867991.74,53020,2.56,71808.0,-17.37,-22.83,-22.77,0,*6D
1512867993.01,53021,2.56,71824.3,-17.37,-24.21,-25.23,0,*64
1512867994.27,53022,2.56,71828.3,-17.37,-25.91,-25.71,0,*6A
1512867995.55,53023,2.56,71828.5,-17.35,-26.17,-25.71,0,*64
1512867996.79,53024,2.56,71826.5,-17.37,-26.03,-25.35,0,*64
1512867998.08,53025,2.56,71840.8,-17.37,-25.45,-25.45,0,*63
1512867999.31,53026,2.56,71828.5,-17.37,-25.39,-24.77,0,*6B
1512868000.57,53027,2.56,71832.8,-17.37,-25.45,-25.23,0,*61
1512868001.81,53028,2.56,71824.0,-17.37,-26.39,-25.91,0,*6F
1512868003.05,53029,2.56,71826.0,-17.37,-26.49,-26.03,0,*61
1512868004.34,53030,2.56,71830.3,-17.37,-26.71,-26.17,0,*67
1512868005.58,53031,2.56,71828.5,-17.39,-26.87,-26.33,0,*67
1512868006.86,53032,2.56,71830.3,-17.43,-26.77,-26.13,0,*64
1512868008.08,53033,2.56,71824.8,-17.43,-26.23,-25.65,0,*66
1512868009.3,53034,2.56,71826.0,-17.39,-26.03,-25.87,0,*62
1512868010.57,53035,2.56,71824.5,-17.43,-26.55,-25.97,0,*6C
1512868011.82,53036,2.56,71818.8,-17.43,-26.29,-25.61,0,*6D
1512868013.04,53037,2.56,71818.8,-17.43,-25.23,-24.93,0,*69
1512868014.26,53038,2.56,71824.5,-17.43,-25.35,-25.09,0,*63
1512868015.5,53039,2.56,71818.8,-17.39,-26.33,-25.87,0,*6C
1512868016.75,53040,2.56,71824.5,-17.43,-26.23,-25.75,0,*63
1512868017.97,53041,2.56,71820.5,-17.43,-26.45,-25.91,0,*68
1512868019.21,53042,2.56,71820.3,-17.39,-26.23,-25.75,0,*6C
1512868020.45,53043,2.56,71814.8,-17.39,-25.61,-25.55,0,*6A
1512868021.67,53044,2.56,71814.8,-17.39,-25.91,-26.07,0,*66
1512868022.92,53045,2.56,71822.8,-17.43,-26.29,-26.39,0,*67
1512868024.19,53046,2.56,71826.3,-17.39,-26.77,-26.71,0,*6E
1512868025.42,53047,2.56,71830.8,-17.39,-26.87,-26.93,0,*6C
1512868026.68,53048,2.56,71830.0,-17.39,-26.71,-26.55,0,*60
1512868027.9,53049,2.56,71820.0,-17.43,-25.91,-26.07,0,*66
1512868029.14,53050,2.56,71822.5,-17.43,-26.45,-26.55,0,*63
1512868030.37,53051,2.56,71824.8,-17.43,-27.07,-27.07,0,*63
1512868031.61,53052,2.56,71834.5,-17.39,-27.07,-27.19,0,*62
1512868032.86,53053,2.56,71830.3,-17.43,-26.39,-26.29,0,*60
1512868034.08,53054,2.56,71824.0,-17.39,-25.87,-26.07,0,*60
1512868035.3,53055,2.56,71824.8,-17.43,-26.61,-26.39,0,*6A
1512868036.53,53056,2.56,71816.3,-17.43,-25.91,-25.65,0,*6F
1512868037.77,53057,2.56,71812.8,-17.39,-25.39,-25.55,0,*62
1512868038.99,53058,2.56,71806.8,-17.43,-24.61,-24.61,0,*6A
1512868040.24,53059,2.56,71812.8,-17.43,-24.61,-24.83,0,*67
1512868041.48,53060,2.56,71834.0,-17.39,-25.71,-26.23,0,*68
1512868042.71,53061,2.56,71836.5,-17.43,-26.65,-26.45,0,*62
1512868043.95,53062,2.56,71838.0,-17.43,-25.49,-24.15,0,*6B
1512868045.17,53063,2.56,71826.0,-17.39,-23.09,-23.09,0,*6F
1512868046.39,53064,2.56,71818.8,-17.39,-23.75,-23.79,0,*64
1512868047.65,53065,2.56,71810.3,-17.39,-24.11,-23.95,0,*62
1512868048.89,53066,2.56,71794.3,-17.39,-23.43,-24.11,0,*6A
1512868050.13,53067,2.56,71812.5,-17.39,-24.05,-24.71,0,*68
1512868051.38,53068,2.56,71818.0,-17.39,-25.71,-26.07,0,*66
1512868052.59,53069,2.56,71820.5,-17.39,-26.23,-26.39,0,*6E
1512868053.85,53070,2.56,71816.3,-17.43,-26.33,-26.61,0,*67
1512868055.1,53071,2.56,71832.8,-17.43,-25.97,-26.07,0,*6B
1512868056.32,53072,2.56,71824.3,-17.43,-26.61,-26.65,0,*66
1512868057.59,53073,2.56,71830.8,-17.43,-26.29,-26.55,0,*68
1512868058.83,53074,2.56,71830.0,-17.43,-26.61,-26.77,0,*63
1512868060.11,53075,2.56,71828.0,-17.43,-26.81,-26.93,0,*66
1512868061.38,53076,2.56,71826.5,-17.43,-26.93,-26.93,0,*66
1512868062.66,53077,2.56,71824.8,-17.43,-26.93,-26.97,0,*63
1512868063.93,53078,2.56,71832.5,-17.43,-26.93,-26.97,0,*6C
1512868065.18,53079,2.56,71834.8,-17.43,-27.07,-27.19,0,*66
1512868066.4,53080,2.56,71838.8,-17.43,-27.13,-27.13,0,*6F
1512868067.67,53081,2.56,71832.0,-17.45,-26.97,-27.07,0,*60
1512868068.97,53082,2.56,71832.5,-17.45,-26.93,-26.81,0,*68
1512868070.2,53083,2.56,71830.8,-17.47,-27.13,-27.19,0,*62
1512868071.5,53084,2.56,71830.0,-17.45,-26.97,-26.97,0,*6D
1512868072.74,53085,2.56,71828.8,-17.47,-26.71,-26.87,0,*67
1512868073.98,53086,2.56,71830.5,-17.47,-26.97,-27.13,0,*60
1512868075.22,53087,2.56,71828.5,-17.47,-26.87,-26.81,0,*6A
1512868076.44,53088,2.56,71824.0,-17.47,-26.45,-26.61,0,*65
1512868077.69,53089,2.56,71826.8,-17.47,-26.65,-26.81,0,*68
1512868078.93,53090,2.56,71822.3,-17.49,-26.87,-26.97,0,*65
1512868080.16,53091,2.56,71830.0,-17.49,-27.19,-27.29,0,*66
1512868081.43,53092,2.56,71834.3,-17.49,-27.45,-27.35,0,*61
1512868082.7,53093,2.56,71828.8,-17.49,-27.45,-27.35,0,*60
1512868083.97,53094,2.56,71830.5,-17.49,-27.61,-27.45,0,*66
1512868085.24,53095,2.56,71828.8,-17.51,-27.35,-27.29,0,*65
1512868086.48,53096,2.56,71826.8,-17.51,-27.13,-27.13,0,*6B
1512868087.72,53097,2.56,71830.3,-17.51,-27.13,-27.13,0,*6A
1512868089.0,53098,2.56,71830.8,-17.51,-26.33,-26.45,0,*64
1512868090.22,53099,2.56,71838.3,-17.49,-26.49,-26.61,0,*67
1512868091.51,53100,2.56,71832.3,-17.51,-26.71,-26.81,0,*6A
1512868092.75,53101,2.56,71830.8,-17.51,-26.45,-26.45,0,*64
1512868094.02,53102,2.56,71830.8,-17.51,-26.33,-26.49,0,*6A
1512868095.26,53103,2.56,71830.5,-17.51,-26.49,-26.65,0,*68
1512868096.56,53104,2.56,71820.0,-17.51,-26.13,-25.97,0,*6E
1512868097.81,53105,2.56,71808.8,-17.51,-25.13,-25.13,0,*60
1512868099.1,53106,2.56,71824.5,-17.51,-25.29,-26.17,0,*6D